Location: Brompton
(51.4000°N, 0.5333°E)
Time: 13:16:09
(UTC+00:00)

USA 215 - Pass Details

Date: 26 September 2021
Orbit: 1102 x 1106 km, 123.0° (Epoch: 22 October)

Event Time Altitude Azimuth Distance (km) Brightness Sun altitude
Exits shadow 20:11:36 28° 164° (SSE) 1,928 4.2 -22.6°
Maximum altitude 20:14:46 48° 222° (SW) 1,406 3.8 -23.1°
Drops below altitude 10° 20:21:04 10° 296° (WNW) 2,966 6.6 -23.9°
Sets 20:23:41 0° 302° (WNW) 3,926 7.6 -24.3°
